GW3202 Weather Reports


time (UTC)temp
F
wind
direction
speed
knots
gust
knots
rain 1hr
in
rain 24hr
in
rain mn
in
humidity
%
barometer
mb
20260508145003 69 15 0.9 2.6 0.00 0.00 0.00 62 1019.1
20260508144002 69 49 0.9 2.6 0.00 0.00 0.00 62 1019.0
20260508143003 71 26 0.9 2.6 0.00 0.00 0.00 61 1019.1
20260508142003 70 123 0.9 1.7 0.00 0.00 0.00 62 1019.0
20260508140003 68 131 0.9 2.6 0.00 0.00 0.00 64 1019.1
20260508135004 65 157 0.0 1.7 0.00 0.00 0.00 68 1019.1
20260508132003 62 75 0.0 1.7 0.00 0.00 0.00 72 1018.9
20260508130004 60 236 0.0 0.9 0.00 0.00 0.00 74 1018.8
20260508125005 60 261 0.0 1.7 0.00 0.00 0.00 75 1018.7
20260508124005 60 241 0.9 1.7 0.00 0.00 0.00 75 1018.7
20260508123003 60 88 0.0 2.6 0.00 0.00 0.00 75 1018.5
20260508121003 60 120 0.9 2.6 0.00 0.00 0.00 74 1018.5
20260508120002 60 117 2.6 2.6 0.00 0.00 0.00 74 1018.6
20260508115003 60 101 1.7 2.6 0.00 0.00 0.00 74 1018.6
20260508114003 59 108 0.0 1.7 0.00 0.00 0.00 75 1018.5
20260508113005 60 127 0.9 1.7 0.00 0.00 0.00 74 1018.4
20260508112004 60 180 0.0 1.7 0.00 0.00 0.00 75 1018.4
20260508111003 60 270 0.9 0.9 0.00 0.00 0.00 74 1018.4
20260508110003 60 264 0.0 1.7 0.00 0.00 0.00 73 1018.4
20260508105003 61 273 0.0 1.7 0.00 0.00 0.00 72 1018.3
20260508104003 61 209 0.0 0.9 0.00 0.00 0.00 72 1018.1
20260508103002 61 102 0.0 1.7 0.00 0.00 0.00 72 1018.1
20260508102003 62 142 1.7 2.6 0.00 0.00 0.00 71 1018.1
20260508101004 62 43 0.9 1.7 0.00 0.00 0.00 70 1018.0
20260508100003 62 109 0.9 2.6 0.00 0.00 0.00 69 1017.8
20260508094003 61 237 0.0 0.9 0.00 0.00 0.00 70 1017.8
20260508093003 61 285 0.0 1.7 0.00 0.00 0.00 70 1017.8
20260508092004 62 257 0.0 2.6 0.00 0.00 0.00 66 1017.9
20260508091005 63 172 0.0 0.9 0.00 0.00 0.00 64 1018.2
20260508085003 63 157 0.9 2.6 0.00 0.00 0.00 63 1018.2
20260508084003 63 125 1.7 2.6 0.00 0.00 0.00 63 1018.2
20260508083003 63 101 0.0 2.6 0.00 0.00 0.00 63 1018.4
20260508082003 63 122 0.0 2.6 0.00 0.00 0.00 63 1018.3
20260508080003 64 215 0.0 1.7 0.00 0.00 0.00 61 1018.5
20260508075003 64 200 0.0 1.7 0.00 0.00 0.00 60 1018.6
20260508072003 64 102 0.9 6.1 0.00 0.00 0.00 59 1019.0
20260508071004 64 113 0.9 4.3 0.00 0.00 0.00 60 1019.1
20260508070006 65 77 0.9 1.7 0.00 0.00 0.00 62 1019.1
20260508065003 65 261 0.0 1.7 0.00 0.00 0.00 60 1019.1
20260508063003 65 262 0.0 1.7 0.00 0.00 0.00 56 1019.4
20260508062004 65 102 0.0 2.6 0.00 0.00 0.00 55 1019.3
20260508060004 65 140 0.9 2.6 0.00 0.00 0.00 55 1019.6
20260508055003 66 154 1.7 2.6 0.00 0.00 0.00 54 1019.6
20260508054003 66 156 1.7 2.6 0.00 0.00 0.00 56 1019.8
20260508053004 66 242 1.7 4.3 0.00 0.00 0.00 58 1019.8
20260508052004 67 251 0.9 1.7 0.00 0.00 0.00 57 1019.8
20260508051003 68 0 0.9 1.7 0.00 0.00 0.00 54 1019.9
20260508050003 68 251 0.0 2.6 0.00 0.00 0.00 53 1019.9
20260508045003 69 139 1.7 4.3 0.00 0.00 0.00 48 1019.7
20260508044004 70 145 0.0 5.2 0.00 0.00 0.00 47 1019.7
20260508043003 70 131 1.7 6.1 0.00 0.00 0.00 48 1019.6
20260508042003 70 339 3.5 8.7 0.00 0.00 0.00 47 1019.3
20260508041004 70 148 3.5 12.2 0.00 0.00 0.00 47 1018.8
20260508040003 70 161 6.1 17.4 0.00 0.00 0.00 47 1018.7
20260508035003 70 121 8.7 22.6 0.00 0.00 0.00 47 1018.8
20260508034003 71 132 6.1 22.6 0.00 0.00 0.00 48 1018.7
20260508033005 71 144 16.5 20.0 0.00 0.00 0.00 53 1018.3
20260508032004 71 155 5.2 20.9 0.00 0.00 0.00 53 1018.1
20260508031003 71 121 7.0 24.3 0.00 0.00 0.00 54 1018.0
20260508030003 71 143 11.3 21.7 0.00 0.00 0.00 54 1017.8
20260508025004 71 172 7.0 21.7 0.00 0.00 0.00 54 1017.6
20260508024003 71 169 7.8 21.7 0.00 0.00 0.00 54 1017.7
20260508023004 71 153 14.8 22.6 0.00 0.00 0.00 54 1017.6
20260508021003 72 142 13.9 25.2 0.00 0.00 0.00 57 1017.4
20260508020003 72 132 6.1 20.9 0.00 0.00 0.00 57 1017.3
20260508015003 72 127 11.3 20.0 0.00 0.00 0.00 55 1017.3
20260508013004 73 135 7.8 20.9 0.00 0.00 0.00 59 1016.8
20260508011003 74 143 11.3 24.3 0.00 0.00 0.00 56 1016.4
20260508010003 75 127 10.4 24.3 0.00 0.00 0.00 54 1016.3
20260508005003 77 124 9.6 17.4 0.00 0.00 0.00 52 1016.2
20260508004004 77 149 8.7 20.0 0.00 0.00 0.00 51 1016.1
20260508003003 77 163 7.8 22.6 0.00 0.00 0.00 51 1015.9
20260508002004 78 131 6.1 22.6 0.00 0.00 0.00 51 1015.9
20260508000003 79 135 7.8 19.1 0.00 0.00 0.00 48 1015.7
20260507234003 80 143 7.8 20.9 0.00 0.00 0.00 47 1015.7
20260507233003 80 177 6.1 19.1 0.00 0.00 0.00 46 1016.0
20260507232005 81 147 9.6 20.9 0.00 0.00 0.00 45 1016.1
20260507230004 82 170 10.4 20.9 0.00 0.00 0.00 42 1016.0
20260507225010 83 191 7.8 19.1 0.00 0.00 0.00 41 1016.0
20260507223005 83 168 7.0 19.1 0.00 0.00 0.00 41 1015.9
20260507222004 84 168 4.3 19.1 0.00 0.00 0.00 40 1016.2
20260507215004 84 168 6.1 20.0 0.00 0.00 0.00 44 1016.6
20260507214003 84 161 10.4 21.7 0.00 0.00 0.00 45 1016.5
20260507213005 83 156 14.8 21.7 0.00 0.00 0.00 47 1016.5
20260507212004 85 174 7.0 17.4 0.00 0.00 0.00 44 1016.4
20260507210005 86 152 7.0 18.2 0.00 0.00 0.00 40 1017.0
20260507205004 86 189 6.1 18.2 0.00 0.00 0.00 39 1017.2
20260507204004 86 149 7.8 18.2 0.00 0.00 0.00 39 1017.0
20260507203004 86 164 6.1 17.4 0.00 0.00 0.00 37 1017.2
20260507202004 86 179 6.1 13.9 0.00 0.00 0.00 36 1017.4
20260507201003 87 161 5.2 17.4 0.00 0.00 0.00 36 1017.6
20260507200003 86 166 5.2 15.6 0.00 0.00 0.00 36 1017.7
20260507194004 87 148 4.3 13.9 0.00 0.00 0.00 34 1018.0
20260507192004 87 176 5.2 14.8 0.00 0.00 0.00 33 1018.1
20260507191003 88 160 2.6 7.8 0.00 0.00 0.00 33 1018.3
20260507185004 88 290 1.7 10.4 0.00 0.00 0.00 29 1018.6
20260507184003 86 168 5.2 10.4 0.00 0.00 0.00 30 1018.5
20260507183003 87 173 2.6 10.4 0.00 0.00 0.00 29 1018.6
20260507182003 87 155 6.1 10.4 0.00 0.00 0.00 30 1018.7
20260507181004 88 170 0.9 7.0 0.00 0.00 0.00 31 1018.8
20260507180003 87 282 2.6 7.0 0.00 0.00 0.00 33 1018.9
20260507175003 87 78 1.7 7.0 0.00 0.00 0.00 34 1019.1
20260507174003 85 158 0.9 5.2 0.00 0.00 0.00 33 1019.3
20260507173004 84 147 1.7 5.2 0.00 0.00 0.00 32 1019.5
20260507172004 84 72 0.9 5.2 0.00 0.00 0.00 33 1019.5
20260507171004 83 227 0.0 5.2 0.00 0.00 0.00 31 1019.5
20260507170003 82 327 1.7 5.2 0.00 0.00 0.00 33 1019.7
20260507165003 80 321 3.5 5.2 0.00 0.00 0.00 37 1019.7
20260507163004 81 259 0.9 4.3 0.00 0.00 0.00 36 1019.7
20260507153003 77 117 0.9 2.6 0.00 0.00 0.00 50 1020.1
20260507152005 75 54 0.9 2.6 0.00 0.00 0.00 58 1020.2
20260507151006 73 340 1.7 2.6 0.00 0.00 0.00 62 1020.1